Tracking 25710 objects as of 5-Jul-2022
HD Live streaming from Space Station
objects crossing your sky now

FENGYUN 1C DEB

Track FENGYUN 1C DEB now!
10-day predictions


NORAD ID: 37064
Int'l Code: 1999-025EEY
Perigee: 824.4 km
Apogee: 1,023.3 km
Inclination: 98.9 °
Period: 103.3 minutes
Semi major axis: 7294 km
RCS: 0.0093 m2 (small)
Launch date: May 10, 1999
Source: People's Republic of China (PRC)
Launch site: Taiyaun Space Center, China (TSC)

Note: This is SATELLITE DEBRIS
aabbcc
Your satellite tracking list
Your tracking list is empty




NASA's NSSDC Master Catalog

Two Line Element Set (TLE):
1 37064U 99025EEY 22185.66244040  .00001827  00000-0  13230-2 0  9998
2 37064  98.9429 345.4830 0136292   1.0354 359.1064 13.93406731654185
Source of the keplerian elements: AFSPC